Garden City, KS

3:41 PM CDT on April 25, 2017 (GMT -0500)
Garden City Regional

Weather History for KGCK - September, 2013

Change the Weather History Date:

Monday, September 16, 2013

  Actual Average Record
Temperature  
Mean Temperature 59 °F 68 °F  
Max Temperature 61 °F 82 °F 102 °F (2007)
Min Temperature 57 °F 54 °F 38 °F (1951)
Degree Days  
Heating Degree Days 6 2  
Month to date heating degree days 0 16  
Since 1 July heating degree days 0 20  
Cooling Degree Days 0 5  
Month to date cooling degree days 167 114  
Year to date cooling degree days 1509 1230  
Growing Degree Days 9 (Base 50)    
Moisture  
Dew Point 57 °F    
Average Humidity 94    
Maximum Humidity 100    
Minimum Humidity 82    
Precipitation  
Precipitation 0.44 in 0.05 in 0.72 in (1950)
Month to date precipitation 1.18 0.84  
Year to date precipitation 11.35 16.49  
Sea Level Pressure  
Sea Level Pressure 30.19 in    
Wind  
Wind Speed 10 mph (ENE)    
Max Wind Speed 16 mph    
Max Gust Speed -    
Visibility 6 miles    
Events Rain    
T = Trace of Precipitation, MM = Missing Value Source: NWS Daily Summary

Daily Weather History Graph

Daily Weather History Graph

Search for Another Location

Airport or City:

Trip Planner

Search our weather history database for the weather conditions in past years. The results will help you decide how hot, cold, wet, or windy it might be!

Date:

Astronomy

Sep. 16, 2013 Rise Set
Actual Time 7:25 AM CDT 7:48 PM CDT
Civil Twilight 6:59 AM CDT 8:15 PM CDT
Nautical Twilight 6:28 AM CDT 8:45 PM CDT
Astronomical Twilight 5:56 AM CDT 9:17 PM CDT
Moon 5:57 PM CDT (9/16) 4:16 AM CDT (9/16)
Length of Visible Light 13h 15m
Length of Day
12h 23m
Waxing Gibbous, 90% of the Moon is Illuminated
Sep 16
Waxing Gibbous
Sep 19
Full
Sep 26
Last Quarter
Oct 4
New
Oct 11
First Quarter

Hourly Weather History & Observations

Time (CDT) Temp. Dew Point Humidity Pressure Visibility Wind Dir Wind Speed Gust Speed Precip Events Conditions
12:54 AM 60.1 °F 57.0 °F 90% 30.12 in 6.0 mi NE 16.1 mph - N/A   Overcast
1:54 AM 59.0 °F 57.9 °F 96% 30.12 in 2.0 mi NE 10.4 mph - 0.00 in Rain Light Rain
2:10 AM 59.0 °F 57.2 °F 94% 30.20 in 1.8 mi NE 10.4 mph - 0.00 in Rain Light Rain
2:23 AM 59.0 °F 57.2 °F 94% 30.21 in 2.0 mi NE 10.4 mph - 0.00 in Rain Light Rain
2:54 AM 59.0 °F 57.0 °F 93% 30.13 in 2.5 mi NE 10.4 mph - 0.00 in Rain Light Rain
3:08 AM 59.0 °F 57.2 °F 94% 30.20 in 3.0 mi NE 10.4 mph - 0.00 in Rain Light Rain
3:33 AM 57.2 °F 57.2 °F 100% 30.21 in 2.5 mi NE 10.4 mph - 0.00 in Rain Light Rain
3:54 AM 57.9 °F 57.0 °F 97% 30.15 in 2.0 mi NE 8.1 mph - 0.00 in Rain Light Rain
4:02 AM 57.2 °F 57.2 °F 100% 30.23 in 2.0 mi ENE 4.6 mph - 0.00 in Rain Light Rain
4:18 AM 57.2 °F 57.2 °F 100% 30.25 in 1.2 mi ESE 4.6 mph - 0.07 in Rain Rain
4:40 AM 57.2 °F 57.2 °F 100% 30.22 in 1.8 mi ENE 11.5 mph - 0.16 in Rain Heavy Rain
4:49 AM 57.2 °F 57.2 °F 100% 30.22 in 2.0 mi ENE 10.4 mph - 0.22 in Rain Rain
4:54 AM 57.9 °F 57.0 °F 97% 30.17 in 3.0 mi ENE 12.7 mph - 0.24 in Rain Rain
5:54 AM 57.0 °F 55.9 °F 96% 30.15 in 5.0 mi ENE 11.5 mph - 0.19 in Rain Rain
6:00 AM 57.2 °F 55.4 °F 94% 30.20 in 6.0 mi ENE 15.0 mph - 0.01 in Rain Light Rain
6:54 AM 57.0 °F 55.9 °F 96% 30.17 in 10.0 mi NE 8.1 mph - 0.01 in Rain Light Rain
7:49 AM 57.2 °F 55.4 °F 94% 30.23 in 10.0 mi NE 10.4 mph - 0.00 in   Overcast
7:54 AM 57.0 °F 55.9 °F 96% 30.19 in 10.0 mi NE 10.4 mph - 0.00 in   Overcast
8:15 AM 57.2 °F 55.4 °F 94% 30.24 in 8.0 mi NE 10.4 mph - N/A   Overcast
8:54 AM 57.0 °F 55.9 °F 96% 30.20 in 10.0 mi NE 9.2 mph - N/A   Overcast
9:54 AM 57.0 °F 55.9 °F 96% 30.19 in 10.0 mi NE 11.5 mph - N/A   Overcast
10:54 AM 57.9 °F 55.9 °F 93% 30.22 in 10.0 mi NE 6.9 mph - N/A   Overcast
11:54 AM 59.0 °F 55.9 °F 90% 30.22 in 10.0 mi NE 5.8 mph - N/A   Overcast
12:24 PM 60.8 °F 55.4 °F 82% 30.26 in 10.0 mi ENE 6.9 mph - N/A   Overcast
12:54 PM 60.1 °F 57.0 °F 90% 30.21 in 10.0 mi NE 8.1 mph - N/A   Overcast
1:08 PM 60.8 °F 57.2 °F 88% 30.25 in 10.0 mi ENE 9.2 mph - N/A   Overcast
1:34 PM 60.8 °F 57.2 °F 88% 30.25 in 10.0 mi East 6.9 mph - N/A   Overcast
1:54 PM 60.1 °F 57.0 °F 90% 30.20 in 10.0 mi ESE 6.9 mph - N/A   Overcast
2:54 PM 61.0 °F 57.9 °F 90% 30.18 in 7.0 mi East 3.5 mph - N/A   Overcast
3:19 PM 60.8 °F 57.2 °F 88% 30.21 in - North - - N/A   Unknown
3:54 PM 60.8 °F 60.8 °F 100% 30.17 in 5.0 mi Calm Calm - N/A   Overcast
4:54 PM - - N/A% 30.18 in - North - - N/A   Unknown
5:54 PM - - N/A% 30.16 in - North - - N/A   Unknown
6:54 PM - - N/A% 30.16 in - North - - N/A   Unknown
7:54 PM - - N/A% 30.16 in - North - - N/A   Unknown
8:54 PM - - N/A% 30.15 in - North - - N/A   Unknown
9:54 PM - - N/A% 30.16 in - North - - N/A   Unknown
10:54 PM - - N/A% 30.17 in - North - - N/A   Unknown
11:54 PM - - N/A% 30.16 in - North - - N/A   Unknown